Location: �terpigny
(49.8910°N, 2.9249°E)
Time: 17:33:33
(UTC+00:00)

Cosmos 1300 - Visible Passes

Search period start: 16 May 2022 00:00
Search period end: 26 May 2022 00:00
Orbit: 506 x 510 km, 82.5° (Epoch: 15 May)

Date Brightness Start Highest point End Pass type
(mag) Time Alt. Az. Time Alt. Az. Time Alt. Az.
16 May 5.5 00:41:31 10° NE 00:43:20 13° ENE 00:45:08 10° E visible
16 May 2.6 02:15:35 10° NNW 02:19:21 65° W 02:22:15 16° S visible
17 May 5.7 00:25:02 10° NE 00:25:47 10° ENE 00:26:32 10° ENE visible
17 May 2.6 01:58:08 10° NNW 02:01:57 84° W 02:04:37 19° S visible
18 May 2.7 01:40:43 10° N 01:44:31 76° E 01:47:01 20° SSE visible
18 May 4.9 03:19:10 10° WNW 03:19:26 10° W 03:19:43 10° W visible
19 May 3.1 01:23:19 10° N 01:27:05 59° ENE 01:29:25 21° SSE visible
19 May 4.8 03:00:24 10° WNW 03:02:08 13° W 03:03:51 10° WSW visible
20 May 3.5 01:05:56 10° N 01:09:37 46° ENE 01:11:51 21° SE visible
20 May 4.5 02:42:27 10° NW 02:44:48 16° W 02:46:41 12° WSW visible
21 May 3.9 00:48:35 10° N 00:52:08 36° ENE 00:54:18 19° SE visible
21 May 4.3 02:24:39 10° NW 02:27:27 20° W 02:29:08 15° WSW visible
22 May 4.3 00:31:15 10° N 00:34:37 29° ENE 00:36:45 17° ESE visible
22 May 4.0 02:06:56 10° NW 02:10:04 25° W 02:11:35 19° SW visible
23 May 4.6 00:13:58 10° NNE 00:17:04 23° ENE 00:19:13 15° ESE visible
23 May 3.7 01:49:18 10° NNW 01:52:40 31° W 01:54:03 24° SW visible
23 May 4.9 23:56:43 10° NNE 23:59:31 19° ENE 00:01:42 13° ESE visible
24 May 3.3 01:31:41 10° NNW 01:35:15 39° W 01:36:32 29° SW visible
24 May 5.2 23:39:33 10° NNE 23:41:56 16° ENE 23:44:11 10° ESE visible
25 May 3.0 01:14:07 10° NNW 01:17:48 50° W 01:19:02 35° SSW visible
25 May 5.3 23:22:33 10° NE 23:24:20 13° ENE 23:26:06 10° E visible
